AirNav   Everest Fuels
 
 1648 users online  

7S3 Stark's Twin Oaks Airpark
Hillsboro, Oregon, USA

GOING TO HILLSBORO?


FAA INFORMATION EFFECTIVE 16 JUNE 2022

Location

FAA Identifier: 7S3
Lat/Long: 45-25-42.4210N 122-56-31.7650W
45-25.707017N 122-56.529417W
45.4284503,-122.9421569
(estimated)
Elevation: 170 ft. / 52 m (estimated)
Variation: 19E (1985)
From city: 4 miles S of HILLSBORO, OR
Time zone: UTC -7 (UTC -8 during Standard Time)
Zip code: 97123

Airport Operations

Airport use: Open to the public
Activation date: 07/1974
Control tower: no
ARTCC: SEATTLE CENTER
FSS: MC MINNVILLE FLIGHT SERVICE STATION
NOTAMs facility: MMV (NOTAM-D service available)
Attendance: DAWN-DUSK
Pattern altitude: 1200 ft. MSL
Wind indicator: yes
Segmented circle: no
Lights: ACTIVATE LIRL RY 02/20-CTAF; AFT 0000 PPR CALL AMGR 503-628-2817.

Airport Communications

CTAF/UNICOM: 123.05
CLEARANCE DELIVERY: 119.95
WX ASOS at HIO (7 nm N): PHONE 503-615-4314
WX ASOS at UAO (13 nm SE): PHONE 503-678-3011
WX ASOS at MMV (16 nm SW): 135.675 (503-434-9153)
WX ASOS at VUO (17 nm NE): 135.125 (360-696-1280)
WX ASOS at PDX (17 nm NE): PHONE (503) 493-7687

Airport Services

Fuel available: 100LL
Parking: tiedowns
Airframe service: MAJOR
Powerplant service: MINOR
Bottled oxygen: NONE
Bulk oxygen: NONE

Runway Information

Runway 2/20

Dimensions: 2465 x 48 ft. / 751 x 15 m
Surface: asphalt, in good condition
Runway edge lights: low intensity
LIGHT FIXTURES 30' FROM RWY EDGES.
RUNWAY 2  RUNWAY 20
Traffic pattern: leftleft
Displaced threshold: 100 ft.no
Markings: NSTD, in good conditionNSTD, in good condition
Obstructions: none15 ft. trees, 210 ft. from runway, 30 ft. right of centerline
20 FT TREES AT 175 FT AND 120 FT LEFT OF CNTRLN. NO SAFETY AREA. ALSO, 10 FT PUB ROAD AT 180 FT XNG CNTRLN.

Airport Ownership and Management from official FAA records

Ownership: Privately-owned
Owner: ROBERT C & BETTY STARK
12405 S.W. RIVER RD
HILLSBORO, OR 97123
Phone 503-522-8952
Manager: ROBERT C. STARK
12405 S.W. RIVER RD
HILLSBORO, OR 97123
Phone 503-628-2817
BOB@TWINOAKSAIRPARK.COM

Airport Operational Statistics

Aircraft based on the field: 161
Single engine airplanes: 159
Multi engine airplanes: 1
Ultralights: 1
    
Aircraft operations: avg 68/day *
72% transient general aviation
28% local general aviation
* for 12-month period ending 30 March 2021

Additional Remarks

RUNWAY ENDS NOT VISIBLE FROM EACH OTHER
FOR CD CTC PORTLAND APCH AT 503-493-7545.
CALM WND RWY 02.

Instrument Procedures

There are no published instrument procedures at 7S3.

Some nearby airports with instrument procedures:

KHIO - Portland-Hillsboro Airport (7 nm N)
KUAO - Aurora State Airport (13 nm SE)
KMMV - Mc Minnville Municipal Airport (16 nm SW)
KVUO - Pearson Field Airport (17 nm NE)
KPDX - Portland International Airport (17 nm NE)
 
Loc | Ops | Rwys | IFR | FBO | Links
Com | Nav | Svcs | Stats | Notes
Area around 7S3 (Stark's Twin Oaks Airpark)
 
Road maps at: MapQuest Bing Google
 
Aerial photo
WARNING: Photo may not be current or correct
Aerial photo of 7S3 (Stark's Twin Oaks Airpark)
Photo taken 19-Sep-2011
looking northeast.

Do you have a better or more recent aerial photo of Stark's Twin Oaks Airpark that you would like to share? If so, please send us your photo.

 
Sectional chart

 
Airport diagram
CAUTION: Diagram may not be current
Diagram of 7S3 (Stark's Twin Oaks Airpark)
 
Airport distance calculator
Flying to Stark's Twin Oaks Airpark? Find the distance to fly.

From to 7S3

Sunrise and sunset
Times for 28-Jun-2022
 Local
(UTC-7)
 Zulu
(UTC)
Morning civil twilight04:4911:49
Sunrise05:2712:27
Sunset21:0304:03
Evening civil twilight21:4104:41

Current date and time
Zulu (UTC)  28-Jun-2022 16:12:40
Local (UTC-7)  28-Jun-2022 09:12:40
 
METAR
KHIO 
7nm N 
281553Z 16013KT 10SM BKN023 15/11 A3013 RMK AO2 SLP199 T01500106
KUAO 
13nm SE 
281553Z 18015G18KT 10SM OVC039 16/11 A3014 RMK AO2 SLP203 T01610106
KMMV 
16nm SW 
281553Z AUTO 15011KT 10SM BKN043 17/12 A3012 RMK AO2 SLP198 T01670117
KVUO 
17nm NE 
281553Z AUTO 16008KT 10SM OVC042 16/10 A3014 RMK AO2 SLP206 T01610100
KPDX 
17nm NE 
281553Z 16008KT 10SM OVC042 17/10 A3014 RMK AO2 SLP203 T01670100 $
TAF
KHIO 
7nm N 
281132Z 2812/2912 17008KT P6SM FEW025 FM281700 21011G18KT P6SM BKN050 FM290300 26007KT P6SM SCT150
KUAO 
13nm SE 
281132Z 2812/2912 21006KT P6SM SKC FM281700 21010KT P6SM BKN050 FM290300 24006KT P6SM SCT250
KPDX 
17nm NE 
281132Z 2812/2912 19008KT P6SM FEW025 FM281800 21012KT P6SM BKN050 FM290300 28008KT P6SM SCT150
NOTAMs
Click for the latest NOTAMs
NOTAMs are issued by the DoD/FAA and will open in a separate window not controlled by AirNav.

 

 
 

FBO, Fuel Providers, and Aircraft Ground Support

  
 Business Name 
 
 Contact 
 
 Services / Description 
 
Fuel Prices
 
Comments
  
Twin Oaks Airpark 503-451-3480
503-522-8952
[web site]
[email]
Airport management, Aviation fuel, Aircraft parking (ramp or tiedown), Hangars, Hangar leasing / sales, Flight training, Aircraft rental, ...

More info about Twin Oaks Airpark
Phillips 66
100LL
SS $6.89 
 Updated 15-Jun-2022
 
   write
SS=Self service
Update Fuel Prices
 

Would you like to see your business listed on this page?

 If your business provides an interesting product or service to pilots, flight crews, aircraft, or users of the Stark's Twin Oaks Airpark, you should consider listing it here.  To start the listing process, click on the button below
 
Add a business
 

Other Pages about Stark's Twin Oaks Airpark

www.twinoaksairpark.com
 
Update a link
 
Copyright © AirNav, LLC. All rights reserved. Privacy Policy  Contact